Location: Bruch
(44.2051°N, 0.4120°E)
Time: 11:36:11
(UTC+00:00)

RESURS DK-1 - Pass Details

Date: 29 November 2020
Orbit: 557 x 560 km, 69.9° (Epoch: 25 January)

Event Time Altitude Azimuth Distance (km) Brightness Sun altitude
Exits shadow 04:27:11 10° 164° (SSE) 1,847 5.2 -28.9°
Reaches altitude 10° 04:27:11 10° 164° (SSE) 1,842 5.2 -28.9°
Maximum altitude 04:30:39 26° 107° (ESE) 1,114 4.4 -28.3°
Drops below altitude 10° 04:34:07 10° 50° (NE) 1,856 5.5 -27.6°
Sets 04:36:35 0° 38° (NE) 2,757 6.3 -27.2°
